Location: Unspecified
(0.0000°N, 0.0000°E)
Time: 05:23:21
(UTC+01:00)

Cosmos 1515 Rocket - Visible Passes

Search period start: 20 December 2014 00:00
Search period end: 30 December 2014 00:00
Orbit: 609 x 631 km, 82.5° (Epoch: 19 December)

Date Brightness Start Highest point End Pass type
(mag) Time Alt. Az. Time Alt. Az. Time Alt. Az.
20 Dec 4.5 20:51:19 38° SSE 20:51:19 38° SSE 20:54:05 10° S visible
21 Dec 4.6 21:07:16 43° W 21:07:16 43° W 21:11:21 10° SSW visible
22 Dec 5.1 19:45:54 15° ENE 19:47:06 16° E 19:49:48 10° SE visible
22 Dec 6.0 21:22:56 15° WNW 21:24:41 19° W 21:27:47 10° SW visible
23 Dec 4.1 20:01:12 14° NNE 20:04:36 36° E 20:08:37 10° SSE visible
24 Dec 3.4 20:17:42 10° N 20:22:05 87° E 20:26:28 10° S visible
25 Dec 4.9 20:35:30 10° NNW 20:39:35 38° W 20:43:39 10° SSW visible
26 Dec 6.3 20:54:13 10° NW 20:57:04 17° W 20:59:56 10° SW visible
27 Dec 4.0 19:32:53 10° NNE 19:36:59 40° E 19:41:04 10° SSE visible
28 Dec 3.6 19:50:05 10° N 19:54:28 85° W 19:58:50 10° S visible
29 Dec 5.2 20:07:58 10° NNW 20:11:57 35° W 20:15:55 10° SSW visible
